(346) Hermentaria

Orbital Elements

The following orbital elements are taken from MPC 22200:
  (346) Hermentaria
Epoch 2001 Apr. 1.0 TT = JDT 2452000.5                  Goffin
M  89.81615              (2000.0)            P               Q
n   0.21092111     Peri.  290.60372     +0.91107544     -0.38310957
a   2.7950485      Node    92.17748     +0.41159501     +0.82473081
e   0.1033789      Incl.    8.76153     +0.02304545     +0.41598815
P   4.67           H    7.13          G   0.15
From 246 observations at 54 oppositions, 1892-1992, mean residual 0".94.
An explanation of the orbital elements is available.

These orbital elements are also available in forms suitable for loading into a number of popular planetarium-type software programs.


Ephemeris

The following ephemeris is at intervals of five days. A daily ephemeris covering the same time interval is also available.

Date    TT    R. A. (2000) Decl.     Delta      r     Elong.  Phase     V
2000 12 22    07 27.15   +24 28.5    1.770    2.717   160.5     6.9    11.1
2000 12 27    07 22.69   +24 54.4    1.757    2.723   166.5     4.8    10.9
2001 01 01    07 17.90   +25 19.8    1.750    2.728   172.4     2.7    10.8
2001 01 06    07 12.93   +25 44.2    1.751    2.733   176.6     1.2    10.7
2001 01 11    07 07.94   +26 07.0    1.759    2.739   173.4     2.4    10.8
2001 01 16    07 03.07   +26 27.9    1.775    2.744   167.6     4.4    11.0
2001 01 21    06 58.49   +26 46.5    1.798    2.749   161.6     6.5    11.1
2001 01 26    06 54.31   +27 02.8    1.827    2.755   155.7     8.5    11.2
2001 01 31    06 50.67   +27 16.7    1.864    2.760   149.8    10.3    11.3
2001 02 05    06 47.66   +27 28.3    1.906    2.765   144.1    12.1    11.5
2001 02 10    06 45.32   +27 37.8    1.953    2.771   138.5    13.6    11.6
2001 02 15    06 43.71   +27 45.3    2.005    2.776   133.2    15.0    11.7
2001 02 20    06 42.82   +27 51.0    2.062    2.781   127.9    16.3    11.8

Back to Bright Minor Planets

Astronomical Headlines Index

MPC